TimeAKDT,TemperatureF,Dew PointF,Humidity,Sea Level PressureIn,VisibilityMPH,Wind Direction,Wind SpeedMPH,Gust SpeedMPH,PrecipitationIn,Events,Conditions,WindDirDegrees,DateUTC
12:53 AM,42.1,35.1,76,29.94,10.0,NNW,3.5,-,N/A,,Clear,330,2013-08-25 08:53:00
1:53 AM,39.0,32.0,76,29.94,10.0,NNE,8.1,-,N/A,,Clear,20,2013-08-25 09:53:00
2:53 AM,39.9,32.0,73,29.94,10.0,Calm,Calm,-,N/A,,Clear,0,2013-08-25 10:53:00
3:53 AM,37.0,30.9,79,29.93,10.0,ENE,5.8,-,N/A,,Clear,70,2013-08-25 11:53:00
4:53 AM,36.0,30.0,79,29.93,10.0,NE,4.6,-,N/A,,Clear,40,2013-08-25 12:53:00
5:53 AM,34.0,30.0,85,29.92,10.0,NNE,3.5,-,N/A,,Clear,20,2013-08-25 13:53:00
6:53 AM,36.0,30.9,82,29.91,10.0,Calm,Calm,-,N/A,,Clear,0,2013-08-25 14:53:00
7:53 AM,39.0,32.0,76,29.91,10.0,North,4.6,-,N/A,,Clear,360,2013-08-25 15:53:00
8:53 AM,43.0,32.0,65,29.91,10.0,NE,4.6,-,N/A,,Clear,50,2013-08-25 16:53:00
9:53 AM,46.9,32.0,56,29.90,10.0,NNE,3.5,-,N/A,,Clear,20,2013-08-25 17:53:00
10:53 AM,50.0,32.0,50,29.88,10.0,East,9.2,-,N/A,,Clear,80,2013-08-25 18:53:00
11:53 AM,53.1,34.0,48,29.86,10.0,ENE,5.8,-,N/A,,Partly Cloudy,70,2013-08-25 19:53:00
12:53 PM,55.0,33.1,43,29.85,10.0,ENE,9.2,-,N/A,,Partly Cloudy,70,2013-08-25 20:53:00
1:53 PM,57.0,30.9,37,29.83,10.0,East,10.4,-,N/A,,Clear,90,2013-08-25 21:53:00
2:53 PM,59.0,28.9,32,29.82,10.0,East,8.1,-,N/A,,Clear,80,2013-08-25 22:53:00
3:53 PM,60.1,28.0,30,29.80,10.0,East,4.6,-,N/A,,Clear,90,2013-08-25 23:53:00
4:53 PM,62.1,30.0,30,29.78,10.0,East,10.4,-,N/A,,Clear,90,2013-08-26 00:53:00
5:53 PM,62.1,28.9,29,29.77,10.0,Calm,Calm,-,N/A,,Clear,0,2013-08-26 01:53:00
6:53 PM,62.1,30.9,31,29.76,10.0,NE,6.9,-,N/A,,Clear,50,2013-08-26 02:53:00
7:53 PM,60.1,32.0,35,29.75,10.0,ENE,4.6,-,N/A,,Clear,60,2013-08-26 03:53:00
8:53 PM,55.9,35.1,45,29.76,10.0,NNE,8.1,-,N/A,,Clear,30,2013-08-26 04:53:00
9:53 PM,51.1,30.9,46,29.77,10.0,North,6.9,-,N/A,,Partly Cloudy,360,2013-08-26 05:53:00
10:53 PM,48.0,32.0,54,29.78,10.0,North,6.9,-,N/A,,Partly Cloudy,350,2013-08-26 06:53:00
11:53 PM,46.9,30.9,54,29.78,10.0,North,5.8,-,N/A,,Partly Cloudy,360,2013-08-26 07:53:00